Location: Kaarina
(60.4167°N, 22.4167°E)
Time: 17:05:31
(UTC+03:00)

Cosmos 1707 - Pass Details

Date: 24 August 2019
Orbit: 517 x 530 km, 82.5° (Epoch: 20 September)

Event Time Altitude Azimuth Distance (km) Brightness Sun altitude
Rises 23:23:48 0° 347° (NNW) 2,659 7.8 -14.1°
Reaches altitude 10° 23:26:00 10° 353° (N) 1,767 6.5 -14.3°
Maximum altitude 23:29:47 52° 70° (ENE) 660 3.1 -14.5°
Enters shadow 23:31:39 27° 135° (SE) 1,040 3.6 -14.7°
